| time (UTC) | temp F | wind direction | speed MPH | gust MPH | rain 1hr in | rain 24hr in | rain mn in | humidity % | barometer mb |
| 20260904015705 | 56 | 252 | 2.0 | 11.0 | 0.00 | 0.06 | 0.01 | 94 | 1001.0 |
| 20260904015207 | 56 | 284 | 3.0 | 11.0 | 0.00 | 0.06 | 0.01 | 94 | 1001.2 |
| 20260904014705 | 56 | 281 | 2.0 | 13.0 | 0.00 | 0.06 | 0.01 | 94 | 1001.3 |
| 20260904014205 | 56 | 261 | 3.0 | 13.0 | 0.00 | 0.06 | 0.01 | 94 | 1001.2 |
| 20260904013705 | 56 | 224 | 4.0 | 13.0 | 0.00 | 0.06 | 0.01 | 94 | 1001.2 |
| 20260904013204 | 57 | 252 | 5.0 | 11.0 | 0.00 | 0.06 | 0.01 | 94 | 1001.2 |
| 20260904012704 | 57 | 234 | 4.0 | 11.0 | 0.00 | 0.06 | 0.01 | 94 | 1001.3 |
| 20260904012205 | 57 | 174 | 4.0 | 12.0 | 0.00 | 0.06 | 0.01 | 94 | 1001.6 |
| 20260904011705 | 57 | 215 | 4.0 | 12.0 | 0.00 | 0.06 | 0.01 | 94 | 1001.6 |
| 20260904011205 | 57 | 223 | 5.0 | 12.0 | 0.00 | 0.06 | 0.01 | 94 | 1001.6 |
| 20260904010705 | 57 | 269 | 4.0 | 16.0 | 0.00 | 0.06 | 0.01 | 94 | 1001.6 |
| 20260904010205 | 57 | 221 | 4.0 | 16.0 | 0.00 | 0.06 | 0.01 | 94 | 1001.8 |
| 20260904005705 | 57 | 214 | 5.0 | 16.0 | 0.00 | 0.06 | 0.01 | 94 | 1001.9 |
| 20260904005205 | 57 | 215 | 4.0 | 12.0 | 0.00 | 0.06 | 0.01 | 94 | 1002.0 |
| 20260904004705 | 57 | 193 | 4.0 | 12.0 | 0.00 | 0.06 | 0.01 | 94 | 1002.0 |
| 20260904003705 | 57 | 244 | 5.0 | 13.0 | 0.00 | 0.06 | 0.01 | 94 | 1002.1 |
| 20260904003205 | 57 | 244 | 5.0 | 13.0 | 0.00 | 0.06 | 0.01 | 94 | 1002.3 |
| 20260904002205 | 57 | 177 | 5.0 | 13.0 | 0.00 | 0.06 | 0.01 | 94 | 1002.3 |
| 20260904001704 | 57 | 205 | 5.0 | 19.0 | 0.01 | 0.06 | 0.01 | 94 | 1002.5 |
| 20260904001205 | 57 | 242 | 6.0 | 19.0 | 0.01 | 0.06 | 0.01 | 94 | 1002.5 |
| 20260904000705 | 57 | 232 | 7.0 | 19.0 | 0.01 | 0.06 | 0.01 | 94 | 1002.6 |
| 20260904000205 | 57 | 261 | 7.0 | 18.0 | 0.01 | 0.06 | 0.01 | 94 | 1002.5 |
| 20260903235705 | 57 | 217 | 7.0 | 18.0 | 0.01 | 0.06 | 0.01 | 94 | 1002.6 |
| 20260903234705 | 57 | 273 | 4.0 | 19.0 | 0.01 | 0.06 | 0.01 | 94 | 1002.5 |
| 20260903233708 | 57 | 219 | 6.0 | 14.0 | 0.01 | 0.06 | 0.01 | 94 | 1002.8 |
| 20260903233205 | 57 | 236 | 7.0 | 14.0 | 0.01 | 0.07 | 0.01 | 94 | 1002.9 |
| 20260903232706 | 57 | 233 | 6.0 | 14.0 | 0.01 | 0.07 | 0.01 | 94 | 1003.1 |
| 20260903232206 | 57 | 225 | 6.0 | 14.0 | 0.00 | 0.06 | 0.00 | 94 | 1003.2 |
| 20260903231205 | 57 | 210 | 6.0 | 14.0 | 0.00 | 0.06 | 0.00 | 94 | 1003.0 |
| 20260903230705 | 57 | 210 | 5.0 | 14.0 | 0.00 | 0.06 | 0.00 | 94 | 1003.1 |
| 20260903230204 | 57 | 220 | 7.0 | 14.0 | 0.00 | 0.06 | 0.06 | 94 | 1003.3 |
| 20260903225709 | 56 | 214 | 6.0 | 14.0 | 0.00 | 0.07 | 0.06 | 94 | 1003.4 |
| 20260903225205 | 56 | 219 | 6.0 | 16.0 | 0.00 | 0.07 | 0.06 | 94 | 1003.5 |
| 20260903224705 | 56 | 206 | 7.0 | 16.0 | 0.00 | 0.07 | 0.06 | 94 | 1003.5 |
| 20260903224205 | 56 | 186 | 7.0 | 16.0 | 0.00 | 0.07 | 0.06 | 94 | 1003.4 |
| 20260903223705 | 56 | 214 | 7.0 | 18.0 | 0.00 | 0.07 | 0.06 | 94 | 1003.6 |
| 20260903223205 | 56 | 238 | 7.0 | 18.0 | 0.00 | 0.07 | 0.06 | 94 | 1003.6 |
| 20260903222705 | 56 | 244 | 7.0 | 18.0 | 0.00 | 0.07 | 0.06 | 94 | 1003.7 |
| 20260903222233 | 57 | 232 | 6.0 | 18.0 | 0.01 | 0.07 | 0.06 | 94 | 1003.7 |
| 20260903221205 | 57 | 217 | 7.0 | 17.0 | 0.01 | 0.08 | 0.06 | 94 | 1003.8 |
| 20260903215705 | 57 | 288 | 6.0 | 16.0 | 0.01 | 0.12 | 0.06 | 93 | 1004.0 |
| 20260903215205 | 57 | 209 | 6.0 | 17.0 | 0.01 | 0.13 | 0.06 | 93 | 1004.0 |
| 20260903214705 | 57 | 255 | 7.0 | 23.0 | 0.01 | 0.14 | 0.06 | 93 | 1004.1 |
| 20260903213705 | 57 | 263 | 9.0 | 18.0 | 0.01 | 0.16 | 0.06 | 93 | 1004.1 |
| 20260903213205 | 57 | 216 | 7.0 | 18.0 | 0.01 | 0.16 | 0.06 | 93 | 1004.3 |
| 20260903212705 | 57 | 174 | 9.0 | 18.0 | 0.01 | 0.16 | 0.06 | 93 | 1004.3 |
| 20260903212205 | 57 | 219 | 9.0 | 16.0 | 0.00 | 0.16 | 0.06 | 93 | 1004.3 |
| 20260903211705 | 57 | 197 | 8.0 | 18.0 | 0.00 | 0.16 | 0.06 | 93 | 1004.3 |
| 20260903211205 | 57 | 267 | 8.0 | 18.0 | 0.00 | 0.16 | 0.06 | 93 | 1004.2 |
| 20260903205705 | 57 | 213 | 8.0 | 21.0 | 0.00 | 0.16 | 0.06 | 92 | 1004.5 |
| 20260903204705 | 57 | 224 | 8.0 | 17.0 | 0.00 | 0.16 | 0.06 | 92 | 1004.6 |
| 20260903203705 | 57 | 225 | 7.0 | 24.0 | 0.00 | 0.16 | 0.06 | 92 | 1004.7 |
| 20260903202705 | 57 | 184 | 9.0 | 24.0 | 0.00 | 0.16 | 0.06 | 93 | 1004.9 |
| 20260903202206 | 57 | 246 | 7.0 | 20.0 | 0.00 | 0.16 | 0.06 | 93 | 1004.8 |
| 20260903201705 | 57 | 209 | 6.0 | 19.0 | 0.00 | 0.16 | 0.06 | 93 | 1005.0 |
| 20260903200705 | 57 | 231 | 7.0 | 17.0 | 0.00 | 0.16 | 0.06 | 93 | 1005.3 |
| 20260903200205 | 57 | 207 | 7.0 | 17.0 | 0.00 | 0.16 | 0.06 | 93 | 1005.4 |
| 20260903195705 | 57 | 264 | 7.0 | 17.0 | 0.00 | 0.16 | 0.06 | 93 | 1005.5 |
| 20260903195205 | 57 | 225 | 6.0 | 13.0 | 0.00 | 0.16 | 0.06 | 93 | 1005.4 |
| 20260903194705 | 57 | 0 | 5.0 | 13.0 | 0.00 | 0.16 | 0.06 | 93 | 1005.5 |
| 20260903193704 | 57 | 207 | 7.0 | 13.0 | 0.00 | 0.16 | 0.06 | 93 | 1005.5 |
| 20260903193205 | 57 | 219 | 7.0 | 13.0 | 0.00 | 0.17 | 0.06 | 93 | 1005.4 |
| 20260903192706 | 57 | 204 | 6.0 | 12.0 | 0.00 | 0.17 | 0.06 | 93 | 1005.4 |
| 20260903192205 | 57 | 223 | 6.0 | 11.0 | 0.00 | 0.17 | 0.06 | 93 | 1005.2 |
| 20260903191705 | 57 | 217 | 5.0 | 11.0 | 0.00 | 0.17 | 0.06 | 93 | 1005.3 |
| 20260903191205 | 57 | 200 | 6.0 | 11.0 | 0.00 | 0.17 | 0.06 | 92 | 1005.3 |
| 20260903190705 | 57 | 194 | 6.0 | 13.0 | 0.00 | 0.17 | 0.06 | 92 | 1005.4 |
| 20260903190205 | 56 | 195 | 6.0 | 13.0 | 0.00 | 0.17 | 0.06 | 92 | 1005.4 |
| 20260903185707 | 56 | 229 | 5.0 | 13.0 | 0.00 | 0.17 | 0.06 | 92 | 1005.4 |
| 20260903185205 | 56 | 206 | 4.0 | 10.0 | 0.00 | 0.17 | 0.06 | 92 | 1005.4 |
| 20260903184705 | 56 | 240 | 3.0 | 7.0 | 0.00 | 0.17 | 0.06 | 92 | 1005.6 |
| 20260903184205 | 57 | 217 | 1.0 | 7.0 | 0.00 | 0.17 | 0.06 | 92 | 1005.7 |
| 20260903183705 | 57 | 225 | 2.0 | 9.0 | 0.00 | 0.17 | 0.06 | 92 | 1005.7 |
| 20260903183205 | 57 | 221 | 2.0 | 9.0 | 0.00 | 0.17 | 0.06 | 92 | 1005.7 |
| 20260903182705 | 57 | 225 | 2.0 | 9.0 | 0.00 | 0.17 | 0.06 | 92 | 1005.7 |
| 20260903182205 | 57 | 224 | 3.0 | 9.0 | 0.00 | 0.17 | 0.06 | 92 | 1005.8 |
| 20260903181705 | 57 | 215 | 2.0 | 9.0 | 0.00 | 0.17 | 0.06 | 92 | 1005.6 |
| 20260903180704 | 57 | 213 | 3.0 | 9.0 | 0.00 | 0.17 | 0.06 | 92 | 1005.8 |
| 20260903180205 | 57 | 202 | 2.0 | 8.0 | 0.00 | 0.17 | 0.06 | 92 | 1005.8 |
| 20260903175705 | 57 | 254 | 2.0 | 7.0 | 0.00 | 0.17 | 0.06 | 92 | 1006.0 |
| 20260903175206 | 57 | 212 | 2.0 | 10.0 | 0.00 | 0.17 | 0.06 | 92 | 1006.1 |
| 20260903174705 | 57 | 258 | 3.0 | 10.0 | 0.00 | 0.17 | 0.06 | 91 | 1006.2 |
| 20260903174205 | 57 | 235 | 3.0 | 8.0 | 0.00 | 0.17 | 0.06 | 91 | 1006.3 |
| 20260903173205 | 57 | 202 | 4.0 | 12.0 | 0.01 | 0.17 | 0.06 | 91 | 1006.2 |
| 20260903172205 | 57 | 227 | 6.0 | 17.0 | 0.02 | 0.17 | 0.06 | 91 | 1006.1 |
| 20260903171706 | 57 | 219 | 6.0 | 17.0 | 0.03 | 0.18 | 0.06 | 91 | 1006.2 |
| 20260903170706 | 58 | 220 | 6.0 | 16.0 | 0.04 | 0.18 | 0.06 | 90 | 1006.3 |
| 20260903170205 | 58 | 231 | 7.0 | 16.0 | 0.04 | 0.19 | 0.06 | 90 | 1006.3 |
| 20260903165704 | 58 | 210 | 8.0 | 16.0 | 0.04 | 0.19 | 0.06 | 90 | 1006.3 |
| 20260903165205 | 58 | 239 | 8.0 | 15.0 | 0.04 | 0.19 | 0.06 | 90 | 1006.3 |
| 20260903164705 | 58 | 212 | 8.0 | 15.0 | 0.04 | 0.20 | 0.06 | 89 | 1006.4 |
| 20260903164205 | 58 | 219 | 7.0 | 15.0 | 0.04 | 0.20 | 0.06 | 89 | 1006.5 |
| 20260903163705 | 58 | 208 | 7.0 | 15.0 | 0.03 | 0.19 | 0.05 | 88 | 1006.6 |
| 20260903162705 | 59 | 224 | 6.0 | 17.0 | 0.02 | 0.17 | 0.03 | 87 | 1006.7 |
| 20260903161704 | 59 | 232 | 7.0 | 15.0 | 0.01 | 0.17 | 0.02 | 85 | 1006.6 |
| 20260903161205 | 60 | 219 | 7.0 | 19.0 | 0.01 | 0.17 | 0.02 | 85 | 1006.7 |
| 20260903160705 | 60 | 205 | 7.0 | 19.0 | 0.00 | 0.17 | 0.02 | 84 | 1006.8 |
| 20260903160204 | 60 | 209 | 8.0 | 19.0 | 0.00 | 0.17 | 0.02 | 82 | 1006.8 |
| 20260903155205 | 61 | 245 | 9.0 | 22.0 | 0.00 | 0.19 | 0.02 | 80 | 1006.8 |
| 20260903154707 | 61 | 216 | 9.0 | 22.0 | 0.00 | 0.20 | 0.02 | 80 | 1006.7 |
| 20260903154205 | 61 | 208 | 9.0 | 18.0 | 0.00 | 0.20 | 0.02 | 79 | 1006.8 |
| 20260903153707 | 61 | 208 | 9.0 | 18.0 | 0.00 | 0.20 | 0.02 | 80 | 1006.8 |
| 20260903153206 | 61 | 259 | 9.0 | 17.0 | 0.00 | 0.21 | 0.02 | 80 | 1006.8 |
| 20260903152705 | 61 | 225 | 8.0 | 17.0 | 0.00 | 0.21 | 0.02 | 81 | 1006.9 |
| 20260903152205 | 61 | 228 | 8.0 | 17.0 | 0.00 | 0.21 | 0.02 | 81 | 1006.9 |
| 20260903151705 | 61 | 227 | 6.0 | 16.0 | 0.00 | 0.21 | 0.02 | 81 | 1006.9 |
| 20260903151205 | 61 | 214 | 6.0 | 19.0 | 0.00 | 0.22 | 0.02 | 82 | 1006.9 |
| 20260903150704 | 61 | 245 | 8.0 | 19.0 | 0.00 | 0.22 | 0.02 | 81 | 1007.3 |
| 20260903150205 | 61 | 248 | 9.0 | 19.0 | 0.00 | 0.22 | 0.02 | 81 | 1007.4 |
| 20260903145705 | 61 | 209 | 9.0 | 18.0 | 0.00 | 0.22 | 0.02 | 81 | 1007.4 |
| 20260903145205 | 61 | 265 | 8.0 | 19.0 | 0.00 | 0.22 | 0.02 | 80 | 1007.6 |
| 20260903144704 | 61 | 215 | 8.0 | 19.0 | 0.00 | 0.23 | 0.02 | 80 | 1007.7 |
| 20260903144205 | 61 | 224 | 8.0 | 16.0 | 0.00 | 0.23 | 0.02 | 80 | 1007.7 |
| 20260903143705 | 61 | 221 | 6.0 | 17.0 | 0.00 | 0.23 | 0.02 | 80 | 1007.7 |
| 20260903143206 | 61 | 219 | 6.0 | 17.0 | 0.00 | 0.23 | 0.02 | 80 | 1007.9 |
| 20260903142705 | 61 | 221 | 7.0 | 17.0 | 0.00 | 0.23 | 0.02 | 79 | 1007.8 |
| 20260903142206 | 61 | 209 | 7.0 | 20.0 | 0.00 | 0.23 | 0.02 | 79 | 1007.9 |
| 20260903141705 | 62 | 296 | 7.0 | 20.0 | 0.00 | 0.23 | 0.02 | 79 | 1007.9 |
| 20260903140704 | 62 | 200 | 8.0 | 20.0 | 0.00 | 0.23 | 0.02 | 80 | 1007.7 |
| 20260903140226 | 62 | 225 | 8.0 | 16.0 | 0.00 | 0.24 | 0.02 | 80 | 1007.6 |
| 20260903135705 | 62 | 188 | 6.0 | 16.0 | 0.00 | 0.24 | 0.02 | 80 | 1007.7 |
| 20260903135205 | 62 | 215 | 5.0 | 14.0 | 0.00 | 0.24 | 0.02 | 80 | 1007.7 |
| 20260903134705 | 62 | 269 | 4.0 | 14.0 | 0.00 | 0.24 | 0.02 | 80 | 1007.8 |
| 20260903134205 | 62 | 215 | 4.0 | 12.0 | 0.00 | 0.24 | 0.02 | 80 | 1007.8 |
| 20260903133708 | 62 | 219 | 4.0 | 15.0 | 0.00 | 0.24 | 0.02 | 80 | 1007.9 |
| 20260903133205 | 62 | 214 | 5.0 | 15.0 | 0.00 | 0.24 | 0.02 | 80 | 1008.0 |
| 20260903132704 | 62 | 220 | 5.0 | 15.0 | 0.00 | 0.24 | 0.02 | 79 | 1008.0 |
| 20260903131205 | 62 | 275 | 5.0 | 16.0 | 0.00 | 0.24 | 0.02 | 80 | 1007.9 |
| 20260903130705 | 62 | 211 | 5.0 | 16.0 | 0.00 | 0.24 | 0.02 | 79 | 1008.0 |
| 20260903130205 | 62 | 256 | 6.0 | 16.0 | 0.00 | 0.24 | 0.02 | 79 | 1008.2 |
| 20260903125704 | 62 | 216 | 5.0 | 13.0 | 0.00 | 0.24 | 0.02 | 80 | 1008.2 |
| 20260903125206 | 62 | 275 | 5.0 | 15.0 | 0.00 | 0.24 | 0.02 | 80 | 1008.2 |
| 20260903123705 | 62 | 206 | 6.0 | 18.0 | 0.00 | 0.24 | 0.02 | 81 | 1008.2 |
| 20260903123205 | 62 | 240 | 6.0 | 18.0 | 0.00 | 0.24 | 0.02 | 81 | 1007.9 |
| 20260903121205 | 61 | 257 | 7.0 | 19.0 | 0.00 | 0.24 | 0.02 | 81 | 1008.0 |
| 20260903120705 | 61 | 263 | 5.0 | 15.0 | 0.00 | 0.24 | 0.02 | 81 | 1007.9 |
| 20260903120204 | 61 | 228 | 4.0 | 12.0 | 0.00 | 0.24 | 0.02 | 81 | 1008.0 |
| 20260903115704 | 61 | 238 | 4.0 | 12.0 | 0.00 | 0.24 | 0.02 | 80 | 1007.6 |
| 20260903115205 | 61 | 295 | 5.0 | 16.0 | 0.00 | 0.24 | 0.02 | 80 | 1007.7 |
| 20260903114705 | 61 | 242 | 5.0 | 16.0 | 0.00 | 0.24 | 0.02 | 81 | 1007.8 |
| 20260903113705 | 61 | 256 | 6.0 | 13.0 | 0.00 | 0.24 | 0.02 | 82 | 1008.0 |
| 20260903113205 | 61 | 292 | 5.0 | 13.0 | 0.00 | 0.24 | 0.02 | 81 | 1008.1 |
| 20260903112704 | 61 | 273 | 4.0 | 15.0 | 0.00 | 0.24 | 0.02 | 83 | 1008.0 |
| 20260903112205 | 61 | 205 | 5.0 | 18.0 | 0.00 | 0.24 | 0.02 | 82 | 1008.0 |
| 20260903111705 | 61 | 273 | 6.0 | 18.0 | 0.00 | 0.24 | 0.02 | 82 | 1008.0 |
| 20260903111223 | 62 | 254 | 7.0 | 18.0 | 0.00 | 0.24 | 0.02 | 83 | 1008.0 |
| 20260903110705 | 62 | 203 | 7.0 | 17.0 | 0.00 | 0.24 | 0.02 | 83 | 1007.8 |
| 20260903110205 | 63 | 211 | 8.0 | 19.0 | 0.00 | 0.24 | 0.02 | 82 | 1008.0 |
| 20260903105704 | 63 | 244 | 8.0 | 19.0 | 0.00 | 0.24 | 0.02 | 84 | 1007.7 |
| 20260903105205 | 62 | 201 | 6.0 | 19.0 | 0.00 | 0.24 | 0.02 | 86 | 1007.8 |
| 20260903104704 | 62 | 211 | 7.0 | 18.0 | 0.00 | 0.24 | 0.02 | 85 | 1007.6 |
| 20260903103705 | 63 | 226 | 5.0 | 13.0 | 0.00 | 0.24 | 0.02 | 86 | 1007.7 |
| 20260903103206 | 60 | 233 | 4.0 | 13.0 | 0.00 | 0.24 | 0.02 | 89 | 1007.8 |
| 20260903102705 | 60 | 215 | 4.0 | 10.0 | 0.00 | 0.24 | 0.02 | 89 | 1007.9 |
| 20260903102206 | 60 | 263 | 3.0 | 9.0 | 0.00 | 0.24 | 0.02 | 88 | 1007.8 |
| 20260903101705 | 60 | 248 | 4.0 | 13.0 | 0.00 | 0.24 | 0.02 | 88 | 1007.9 |
| 20260903101204 | 60 | 270 | 5.0 | 17.0 | 0.00 | 0.24 | 0.02 | 88 | 1007.9 |
| 20260903100705 | 60 | 297 | 5.0 | 17.0 | 0.00 | 0.24 | 0.02 | 87 | 1008.1 |
| 20260903100205 | 61 | 246 | 5.0 | 17.0 | 0.00 | 0.24 | 0.02 | 89 | 1008.1 |
| 20260903095205 | 60 | 235 | 4.0 | 11.0 | 0.00 | 0.24 | 0.02 | 91 | 1007.8 |
| 20260903094705 | 59 | 240 | 5.0 | 11.0 | 0.00 | 0.24 | 0.02 | 92 | 1007.9 |
| 20260903094205 | 59 | 284 | 5.0 | 10.0 | 0.00 | 0.24 | 0.02 | 93 | 1007.9 |
| 20260903093206 | 58 | 250 | 6.0 | 16.0 | 0.00 | 0.24 | 0.02 | 95 | 1008.0 |
| 20260903092705 | 58 | 204 | 6.0 | 16.0 | 0.00 | 0.24 | 0.02 | 95 | 1008.0 |
| 20260903092205 | 58 | 186 | 6.0 | 13.0 | 0.00 | 0.24 | 0.02 | 95 | 1008.1 |
| 20260903091705 | 57 | 199 | 5.0 | 13.0 | 0.00 | 0.24 | 0.02 | 96 | 1008.1 |
| 20260903091205 | 57 | 258 | 6.0 | 12.0 | 0.00 | 0.24 | 0.02 | 95 | 1008.0 |
| 20260903090705 | 57 | 187 | 5.0 | 14.0 | 0.00 | 0.25 | 0.02 | 95 | 1008.0 |
| 20260903090205 | 57 | 234 | 4.0 | 14.0 | 0.00 | 0.26 | 0.02 | 96 | 1007.9 |
| 20260903085206 | 56 | 189 | 4.0 | 15.0 | 0.00 | 0.27 | 0.02 | 96 | 1007.9 |
| 20260903084705 | 56 | 235 | 6.0 | 15.0 | 0.00 | 0.27 | 0.02 | 96 | 1007.7 |
| 20260903084206 | 57 | 264 | 5.0 | 11.0 | 0.00 | 0.28 | 0.02 | 96 | 1007.7 |
| 20260903083705 | 56 | 217 | 4.0 | 12.0 | 0.00 | 0.28 | 0.02 | 96 | 1007.6 |
| 20260903083205 | 56 | 211 | 5.0 | 12.0 | 0.00 | 0.28 | 0.02 | 96 | 1007.5 |
| 20260903082705 | 56 | 263 | 4.0 | 12.0 | 0.00 | 0.28 | 0.02 | 96 | 1007.6 |
| 20260903082205 | 56 | 286 | 4.0 | 12.0 | 0.00 | 0.29 | 0.02 | 97 | 1007.5 |
| 20260903081706 | 56 | 274 | 5.0 | 13.0 | 0.00 | 0.29 | 0.02 | 97 | 1007.5 |
| 20260903081205 | 56 | 293 | 4.0 | 15.0 | 0.00 | 0.30 | 0.02 | 97 | 1007.3 |
| 20260903080705 | 56 | 239 | 4.0 | 15.0 | 0.00 | 0.30 | 0.02 | 96 | 1007.2 |
| 20260903080205 | 56 | 281 | 5.0 | 15.0 | 0.00 | 0.30 | 0.02 | 96 | 1007.2 |
| 20260903075704 | 56 | 266 | 6.0 | 13.0 | 0.00 | 0.30 | 0.02 | 97 | 1007.2 |
| 20260903075206 | 56 | 236 | 5.0 | 13.0 | 0.00 | 0.30 | 0.02 | 97 | 1007.0 |
| 20260903074705 | 56 | 281 | 5.0 | 11.0 | 0.00 | 0.31 | 0.02 | 97 | 1007.3 |
| 20260903074205 | 56 | 279 | 5.0 | 11.0 | 0.00 | 0.31 | 0.02 | 97 | 1007.3 |
| 20260903073205 | 57 | 300 | 3.0 | 11.0 | 0.00 | 0.31 | 0.02 | 97 | 1007.6 |
| 20260903072206 | 57 | 258 | 4.0 | 12.0 | 0.00 | 0.31 | 0.02 | 97 | 1007.5 |
| 20260903071705 | 56 | 281 | 4.0 | 13.0 | 0.00 | 0.31 | 0.02 | 97 | 1007.4 |
| 20260903071205 | 56 | 303 | 4.0 | 13.0 | 0.00 | 0.31 | 0.02 | 97 | 1007.2 |
| 20260903070704 | 56 | 252 | 4.0 | 14.0 | 0.00 | 0.31 | 0.02 | 97 | 1007.0 |
| 20260903070205 | 55 | 193 | 4.0 | 14.0 | 0.00 | 0.31 | 0.02 | 97 | 1006.8 |
| 20260903065705 | 55 | 246 | 5.0 | 14.0 | 0.00 | 0.32 | 0.02 | 97 | 1006.7 |
| 20260903064705 | 55 | 257 | 6.0 | 13.0 | 0.00 | 0.32 | 0.02 | 97 | 1006.5 |
| 20260903064205 | 56 | 268 | 6.0 | 13.0 | 0.00 | 0.32 | 0.02 | 97 | 1006.5 |
| 20260903063705 | 56 | 155 | 6.0 | 13.0 | 0.00 | 0.32 | 0.02 | 97 | 1006.5 |
| 20260903063205 | 56 | 250 | 5.0 | 12.0 | 0.00 | 0.32 | 0.02 | 97 | 1006.4 |
| 20260903062705 | 56 | 292 | 4.0 | 11.0 | 0.00 | 0.32 | 0.02 | 97 | 1006.5 |
| 20260903061705 | 56 | 261 | 4.0 | 11.0 | 0.00 | 0.32 | 0.02 | 97 | 1006.4 |
| 20260903061226 | 56 | 225 | 5.0 | 11.0 | 0.00 | 0.32 | 0.02 | 97 | 1006.4 |
| 20260903060705 | 56 | 206 | 4.0 | 11.0 | 0.00 | 0.32 | 0.02 | 97 | 1006.3 |
| 20260903060205 | 56 | 234 | 5.0 | 14.0 | 0.00 | 0.32 | 0.02 | 97 | 1006.1 |
| 20260903055206 | 57 | 240 | 7.0 | 16.0 | 0.00 | 0.32 | 0.02 | 97 | 1005.7 |
| 20260903054205 | 57 | 176 | 5.0 | 16.0 | 0.00 | 0.32 | 0.02 | 97 | 1005.6 |
| 20260903053705 | 58 | 231 | 5.0 | 18.0 | 0.00 | 0.32 | 0.02 | 97 | 1005.5 |
| 20260903053204 | 58 | 225 | 5.0 | 18.0 | 0.00 | 0.32 | 0.02 | 97 | 1005.3 |
| 20260903052205 | 58 | 202 | 6.0 | 16.0 | 0.00 | 0.32 | 0.02 | 97 | 1005.3 |
| 20260903051704 | 58 | 217 | 6.0 | 16.0 | 0.00 | 0.32 | 0.02 | 97 | 1005.1 |
| 20260903050706 | 58 | 317 | 5.0 | 12.0 | 0.00 | 0.32 | 0.02 | 97 | 1005.2 |
| 20260903050205 | 58 | 206 | 5.0 | 12.0 | 0.00 | 0.32 | 0.02 | 97 | 1005.2 |
| 20260903045705 | 58 | 215 | 4.0 | 14.0 | 0.00 | 0.32 | 0.02 | 97 | 1005.2 |
| 20260903045206 | 58 | 245 | 4.0 | 14.0 | 0.00 | 0.32 | 0.02 | 97 | 1005.3 |
| 20260903044705 | 58 | 207 | 4.0 | 14.0 | 0.00 | 0.32 | 0.02 | 97 | 1005.2 |
| 20260903044205 | 58 | 234 | 4.0 | 12.0 | 0.00 | 0.32 | 0.02 | 97 | 1005.2 |
| 20260903042705 | 58 | 216 | 3.0 | 10.0 | 0.00 | 0.32 | 0.02 | 97 | 1005.4 |
| 20260903042226 | 58 | 183 | 3.0 | 10.0 | 0.00 | 0.32 | 0.02 | 97 | 1005.4 |
| 20260903041705 | 58 | 216 | 3.0 | 9.0 | 0.00 | 0.32 | 0.02 | 97 | 1005.4 |
| 20260903040704 | 58 | 233 | 4.0 | 13.0 | 0.00 | 0.32 | 0.02 | 97 | 1005.4 |
| 20260903040205 | 58 | 239 | 4.0 | 16.0 | 0.00 | 0.32 | 0.02 | 97 | 1005.4 |
| 20260903035705 | 58 | 217 | 4.0 | 16.0 | 0.00 | 0.32 | 0.02 | 97 | 1005.3 |
| 20260903035205 | 58 | 241 | 6.0 | 16.0 | 0.00 | 0.32 | 0.02 | 97 | 1005.2 |
| 20260903034705 | 58 | 248 | 4.0 | 14.0 | 0.00 | 0.32 | 0.02 | 97 | 1005.2 |
| 20260903034207 | 58 | 258 | 2.0 | 10.0 | 0.00 | 0.32 | 0.02 | 97 | 1005.2 |
| 20260903033704 | 58 | 211 | 2.0 | 12.0 | 0.00 | 0.32 | 0.02 | 97 | 1005.2 |
| 20260903032704 | 58 | 244 | 4.0 | 15.0 | 0.00 | 0.32 | 0.02 | 97 | 1005.2 |
| 20260903031705 | 58 | 300 | 4.0 | 10.0 | 0.00 | 0.32 | 0.02 | 97 | 1005.1 |
| 20260903031207 | 58 | 214 | 3.0 | 10.0 | 0.00 | 0.32 | 0.02 | 97 | 1005.1 |
| 20260903030705 | 58 | 239 | 3.0 | 10.0 | 0.00 | 0.32 | 0.02 | 97 | 1005.1 |
| 20260903025708 | 58 | 246 | 5.0 | 16.0 | 0.00 | 0.32 | 0.02 | 97 | 1004.9 |
| 20260903025208 | 58 | 322 | 5.0 | 16.0 | 0.00 | 0.32 | 0.02 | 97 | 1005.0 |
| 20260903024705 | 58 | 191 | 5.0 | 13.0 | 0.00 | 0.32 | 0.02 | 97 | 1004.9 |
| 20260903024205 | 58 | 257 | 5.0 | 14.0 | 0.00 | 0.32 | 0.02 | 97 | 1004.9 |
| 20260903023705 | 59 | 258 | 4.0 | 14.0 | 0.00 | 0.32 | 0.02 | 97 | 1004.9 |
| 20260903022705 | 59 | 236 | 3.0 | 12.0 | 0.00 | 0.32 | 0.02 | 97 | 1004.9 |
| 20260903021719 | 59 | 237 | 4.0 | 16.0 | 0.00 | 0.32 | 0.02 | 97 | 1004.9 |
| 20260903021205 | 59 | 240 | 5.0 | 16.0 | 0.00 | 0.32 | 0.02 | 97 | 1005.0 |
| 20260903020205 | 59 | 261 | 7.0 | 16.0 | 0.00 | 0.32 | 0.02 | 97 | 1004.9 |